KN4FVH Weather Reports


time (UTC)temp
C
wind
direction
speed
KPH
gust
KPH
rain 1hr
cm
rain 24hr
cm
rain mn
cm
humidity
%
barometer
mb
20260510162649 25 203 0.0 0.0 0.00 0.00 0.00 48 1017.0
20260510162146 25 348 0.0 0.0 0.00 0.00 0.00 50 1017.2
20260510161642 25 336 1.6 1.6 0.00 0.00 0.00 48 1017.2
20260510161138 25 29 0.0 0.0 0.00 0.00 0.00 54 1017.3
20260510160636 24 12 3.2 3.2 0.00 0.00 0.00 50 1017.3
20260510160136 24 22 0.0 1.6 0.00 0.00 0.00 50 1017.2
20260510155632 24 6 0.0 0.0 0.00 0.00 0.00 55 1017.4
20260510155128 24 26 1.6 3.2 0.00 0.00 0.00 55 1017.2
20260510154623 24 23 0.0 0.0 0.00 0.00 0.00 57 1017.4
20260510154119 24 228 0.0 0.0 0.00 0.00 0.00 58 1017.3
20260510153615 23 179 1.6 1.6 0.00 0.00 0.00 58 1017.6
20260510153111 23 190 1.6 1.6 0.00 0.00 0.00 59 1017.6
20260510152608 23 346 1.6 1.6 0.00 0.00 0.00 59 1017.6
20260510152104 23 263 0.0 0.0 0.00 0.00 0.00 60 1017.5
20260510151601 23 308 0.0 1.6 0.00 0.00 0.00 62 1017.3
20260510151100 23 244 0.0 0.0 0.00 0.00 0.00 61 1017.3
20260510150554 22 320 0.0 1.6 0.00 0.00 0.00 60 1017.6
20260510150050 22 11 0.0 0.0 0.00 0.00 0.00 64 1017.3
20260510145547 22 20 3.2 4.8 0.00 0.00 0.00 65 1017.5
20260510145044 22 341 0.0 0.0 0.00 0.00 0.00 64 1017.3
20260510144540 22 343 0.0 0.0 0.00 0.00 0.00 66 1017.3
20260510144036 22 20 1.6 1.6 0.00 0.00 0.00 66 1017.3
20260510143531 22 345 1.6 1.6 0.00 0.00 0.00 65 1017.2
20260510143028 22 69 0.0 0.0 0.00 0.00 0.00 65 1017.5
20260510142525 22 21 1.6 1.6 0.00 0.00 0.00 65 1017.2
20260510142022 21 321 0.0 0.0 0.00 0.00 0.00 65 1017.3
20260510141518 21 329 0.0 0.0 0.00 0.00 0.00 67 1017.3
20260510141016 21 323 0.0 1.6 0.00 0.00 0.00 69 1017.1
20260510140511 21 326 0.0 0.0 0.00 0.00 0.00 72 1017.5
20260510140006 21 8 1.6 1.6 0.00 0.00 0.00 74 1017.4
20260510135501 20 354 0.0 0.0 0.00 0.00 0.00 73 1017.5
20260510134958 20 8 0.0 1.6 0.00 0.00 0.00 75 1017.4
20260510134455 20 358 1.6 1.6 0.00 0.00 0.00 76 1017.4
20260510133952 20 17 1.6 3.2 0.00 0.00 0.00 78 1017.1
20260510133448 20 338 1.6 1.6 0.00 0.00 0.00 77 1017.3
20260510132944 20 61 0.0 0.0 0.00 0.00 0.00 81 1017.3
20260510132441 20 63 0.0 0.0 0.00 0.00 0.00 82 1017.2
20260510131938 19 75 1.6 1.6 0.00 0.00 0.00 83 1017.2
20260510131436 19 114 0.0 0.0 0.00 0.00 0.00 85 1017.3
20260510130932 18 149 0.0 0.0 0.00 0.00 0.00 87 1017.1
20260510130429 18 204 0.0 0.0 0.00 0.00 0.00 89 1017.0
20260510125926 18 203 0.0 0.0 0.00 0.00 0.00 90 1017.0
20260510125422 18 204 0.0 0.0 0.00 0.00 0.00 90 1016.9
20260510124919 18 237 0.0 0.0 0.00 0.00 0.00 91 1016.7
20260510124416 17 249 0.0 0.0 0.00 0.00 0.00 92 1016.8
20260510123912 17 249 0.0 0.0 0.00 0.00 0.00 94 1016.9
20260510123408 17 248 0.0 0.0 0.00 0.00 0.00 95 1016.8
20260510122905 17 216 0.0 0.0 0.00 0.00 0.00 95 1016.8
20260510122359 17 216 0.0 0.0 0.00 0.00 0.00 96 1016.8
20260510121856 17 216 0.0 0.0 0.00 0.00 0.00 96 1016.8
20260510121354 17 216 0.0 0.0 0.00 0.00 0.00 96 1016.5
20260510120851 16 216 0.0 0.0 0.00 0.00 0.00 96 1016.5
20260510120348 16 216 0.0 0.0 0.00 0.00 0.00 96 1016.6
20260510115848 16 216 0.0 0.0 0.00 0.00 0.00 97 1016.4
20260510115346 16 216 0.0 0.0 0.00 0.00 0.00 97 1016.3
20260510114842 16 216 0.0 0.0 0.00 0.00 0.00 97 1016.4
20260510114339 16 216 0.0 0.0 0.00 0.00 0.00 97 1016.4
20260510113839 16 222 0.0 0.0 0.00 0.00 0.00 97 1016.2
20260510113336 16 222 0.0 0.0 0.00 0.00 0.00 97 1016.4
20260510112832 16 222 0.0 0.0 0.00 0.00 0.00 98 1016.1
20260510112330 16 222 0.0 0.0 0.00 0.00 0.00 97 1016.0
20260510111825 16 222 0.0 0.0 0.00 0.00 0.00 97 1015.8
20260510111323 16 222 0.0 0.0 0.00 0.00 0.00 98 1015.8
20260510110822 16 222 0.0 0.0 0.00 0.00 0.00 97 1015.6
20260510110321 16 222 0.0 0.0 0.00 0.00 0.00 97 1015.7
20260510105816 16 205 0.0 0.0 0.00 0.00 0.00 97 1015.5
20260510105316 16 204 0.0 0.0 0.00 0.00 0.00 97 1015.6
20260510104812 16 204 0.0 0.0 0.00 0.00 0.00 97 1015.3
20260510104310 16 204 0.0 0.0 0.00 0.00 0.00 97 1015.5
20260510103806 16 203 0.0 0.0 0.00 0.00 0.00 97 1015.6
20260510103303 16 203 0.0 0.0 0.00 0.00 0.00 97 1015.2
20260510102803 16 204 0.0 0.0 0.00 0.00 0.00 97 1015.3
20260510102259 16 206 0.0 0.0 0.00 0.00 0.00 97 1015.3
20260510101757 16 209 0.0 0.0 0.00 0.00 0.00 97 1015.3
20260510101255 16 215 0.0 0.0 0.00 0.00 0.00 97 1015.0
20260510100751 16 215 0.0 0.0 0.00 0.00 0.00 96 1014.9
20260510100250 16 213 0.0 0.0 0.00 0.00 0.00 96 1014.6
20260510095750 16 213 0.0 0.0 0.00 0.00 0.00 96 1014.8
20260510095245 16 213 0.0 0.0 0.00 0.00 0.00 96 1014.7
20260510094744 16 211 0.0 0.0 0.00 0.00 0.00 96 1014.6
20260510094240 16 212 0.0 0.0 0.00 0.00 0.00 96 1014.6
20260510093736 16 214 0.0 0.0 0.00 0.00 0.00 96 1014.3
20260510093233 16 215 0.0 0.0 0.00 0.00 0.00 96 1014.3
20260510092729 16 215 0.0 0.0 0.00 0.00 0.00 96 1014.4
20260510092225 16 215 0.0 0.0 0.00 0.00 0.00 96 1014.1
20260510091721 16 215 0.0 0.0 0.00 0.00 0.00 96 1014.1
20260510091218 16 213 0.0 0.0 0.00 0.00 0.00 96 1014.0
20260510090714 16 213 0.0 0.0 0.00 0.00 0.00 96 1013.9
20260510090211 16 213 0.0 0.0 0.00 0.00 0.00 96 1014.1
20260510085706 16 213 0.0 0.0 0.00 0.00 0.00 96 1014.1
20260510085202 16 213 0.0 0.0 0.00 0.00 0.00 96 1014.0
20260510084658 16 213 0.0 0.0 0.00 0.00 0.00 95 1014.3
20260510084155 16 213 0.0 0.0 0.00 0.00 0.00 95 1014.0
20260510083652 16 213 0.0 0.0 0.00 0.00 0.00 95 1014.2
20260510083149 16 201 0.0 0.0 0.00 0.00 0.00 95 1013.8
20260510082645 16 200 0.0 0.0 0.00 0.00 0.00 95 1013.9
20260510082140 16 200 0.0 0.0 0.00 0.00 0.00 95 1013.7
20260510081635 16 200 0.0 0.0 0.00 0.00 0.00 95 1013.9
20260510081131 16 200 0.0 0.0 0.00 0.00 0.00 94 1013.7
20260510080631 16 200 0.0 0.0 0.00 0.00 0.00 94 1013.8
20260510080128 16 200 0.0 0.0 0.00 0.00 0.00 94 1013.7
20260510075625 16 198 0.0 0.0 0.00 0.00 0.00 94 1014.0
20260510075122 16 198 0.0 0.0 0.00 0.00 0.00 94 1013.7
20260510074619 16 201 0.0 0.0 0.00 0.00 0.00 95 1014.0
20260510074115 16 201 0.0 0.0 0.00 0.00 0.00 95 1013.9
20260510073611 16 201 0.0 0.0 0.00 0.00 0.00 95 1013.8
20260510073108 16 201 0.0 0.0 0.00 0.00 0.00 95 1013.8
20260510072605 16 201 0.0 0.0 0.00 0.00 0.00 95 1013.7
20260510072101 16 201 0.0 0.0 0.00 0.00 0.00 95 1013.6
20260510071557 16 201 0.0 0.0 0.00 0.00 0.00 95 1013.7
20260510071055 16 201 0.0 0.0 0.00 0.00 0.00 95 1013.6
20260510070551 16 201 0.0 0.0 0.00 0.00 0.00 95 1013.5
20260510070049 16 201 0.0 0.0 0.00 0.00 0.00 94 1013.7
20260510065545 16 201 0.0 0.0 0.00 0.00 0.00 94 1013.7
20260510065041 17 201 0.0 0.0 0.00 0.00 0.00 94 1013.6
20260510064537 17 201 0.0 0.0 0.00 0.00 0.00 94 1013.8
20260510064034 17 201 0.0 0.0 0.00 0.00 0.00 94 1013.9
20260510063531 17 201 0.0 0.0 0.00 0.00 0.00 94 1013.7
20260510063028 17 201 0.0 0.0 0.00 0.00 0.00 94 1013.8
20260510062524 17 201 0.0 0.0 0.00 0.00 0.00 93 1013.6
20260510062019 17 201 0.0 0.0 0.00 0.00 0.00 93 1013.5
20260510061516 17 201 0.0 0.0 0.00 0.00 0.00 93 1013.6
20260510061013 17 201 0.0 0.0 0.00 0.00 0.00 92 1013.7
20260510060509 17 201 0.0 0.0 0.00 0.00 0.00 92 1014.0
20260510060006 17 201 0.0 0.0 0.00 0.00 0.00 92 1013.8
20260510055501 17 201 0.0 0.0 0.00 0.00 0.00 92 1013.8
20260510055000 17 201 0.0 0.0 0.00 0.00 0.00 92 1013.8
20260510054455 17 201 0.0 0.0 0.00 0.00 0.00 92 1013.8
20260510053950 17 201 0.0 0.0 0.00 0.00 0.00 92 1013.8
20260510053445 17 201 0.0 0.0 0.00 0.00 0.00 91 1013.9
20260510052942 17 201 0.0 0.0 0.00 0.00 0.00 91 1013.9
20260510052438 17 201 0.0 0.0 0.00 0.00 0.00 91 1013.8
20260510051934 17 201 0.0 0.0 0.00 0.00 0.00 91 1013.8
20260510051431 17 201 0.0 0.0 0.00 0.00 0.00 90 1014.2
20260510050927 17 201 0.0 0.0 0.00 0.00 0.00 90 1014.3
20260510050424 17 201 0.0 0.0 0.00 0.00 0.00 90 1014.4
20260510045921 17 197 0.0 0.0 0.00 0.00 0.00 90 1014.2
20260510045419 17 196 0.0 0.0 0.00 0.00 0.00 90 1014.1
20260510044915 17 192 0.0 0.0 0.00 0.00 0.00 91 1014.1
20260510044412 17 201 0.0 0.0 0.00 0.00 0.00 91 1014.3
20260510043909 17 201 0.0 0.0 0.00 0.00 0.00 91 1014.3
20260510043404 17 201 0.0 0.0 0.00 0.00 0.00 92 1014.1
20260510042903 17 201 0.0 0.0 0.00 0.00 0.00 92 1014.3
20260510042359 17 201 0.0 0.0 0.00 0.00 0.00 92 1014.0
20260510041854 17 201 0.0 0.0 0.00 0.00 0.00 93 1014.3
20260510041352 17 201 0.0 0.0 0.00 0.00 0.00 93 1014.1
20260510040849 17 201 0.0 0.0 0.00 0.00 0.00 94 1014.2
20260510040346 17 200 0.0 0.0 0.00 0.00 0.00 94 1014.3
20260510035841 17 201 0.0 0.0 0.00 0.00 0.00 95 1014.3
20260510035337 17 201 0.0 0.0 0.00 0.00 0.00 95 1014.0
20260510034833 17 201 0.0 0.0 0.00 0.00 0.00 96 1013.9
20260510034331 17 200 0.0 0.0 0.00 0.00 0.00 96 1014.2
20260510033828 17 200 0.0 0.0 0.00 0.00 0.00 97 1014.1
20260510033325 17 200 0.0 0.0 0.00 0.00 0.00 96 1014.3
20260510032821 17 200 0.0 0.0 0.00 0.00 0.00 96 1013.9
20260510032318 17 200 0.0 0.0 0.00 0.00 0.00 96 1013.9
20260510031813 17 200 0.0 0.0 0.00 0.00 0.00 96 1014.0
20260510031303 17 200 0.0 0.0 0.00 0.00 0.00 96 1013.8
20260510030803 17 200 0.0 0.0 0.00 0.00 0.00 96 1013.7
20260510030300 17 200 0.0 0.0 0.00 0.00 0.00 96 1013.9
20260510025757 17 200 0.0 0.0 0.00 0.00 0.00 96 1014.0
20260510025254 17 200 0.0 0.0 0.00 0.00 0.00 95 1013.7
20260510024751 17 200 0.0 0.0 0.00 0.00 0.00 95 1013.8
20260510024248 17 200 0.0 0.0 0.00 0.00 0.00 95 1013.9
20260510023744 17 200 0.0 0.0 0.00 0.00 0.00 95 1013.9
20260510023241 17 200 0.0 0.0 0.00 0.00 0.00 95 1013.8
20260510022737 17 200 0.0 0.0 0.00 0.00 0.00 95 1013.6
20260510022237 17 200 0.0 0.0 0.00 0.00 0.00 95 1013.7
20260510021732 17 200 0.0 0.0 0.00 0.00 0.00 95 1013.7
20260510021231 17 200 0.0 0.0 0.00 0.00 0.00 95 1013.6
20260510020730 17 200 0.0 0.0 0.00 0.00 0.00 95 1013.6
20260510020225 17 200 0.0 0.0 0.00 0.00 0.00 95 1013.4
20260510015721 17 200 0.0 0.0 0.00 0.00 0.00 95 1013.6
20260510015218 17 200 0.0 0.0 0.00 0.00 0.00 94 1013.7
20260510014713 17 201 0.0 0.0 0.00 0.00 0.00 94 1013.6
20260510014212 17 201 0.0 0.0 0.00 0.00 0.00 93 1013.3
20260510013711 17 201 0.0 0.0 0.00 0.00 0.00 93 1013.5
20260510013208 17 201 0.0 0.0 0.00 0.00 0.00 93 1013.4
20260510012702 18 201 0.0 0.0 0.00 0.00 0.00 92 1013.2
20260510012157 18 201 0.0 0.0 0.00 0.00 0.00 92 1012.8
20260510011652 18 200 0.0 0.0 0.00 0.00 0.00 92 1013.1
20260510011148 18 201 0.0 0.0 0.00 0.00 0.00 91 1012.9
20260510010644 18 200 0.0 0.0 0.00 0.00 0.00 91 1012.9
20260510010141 18 200 0.0 0.0 0.00 0.00 0.00 91 1012.8
20260510005637 18 201 0.0 0.0 0.00 0.00 0.00 90 1012.8
20260510005129 18 201 0.0 0.0 0.00 0.00 0.00 90 1012.6
20260510004627 18 201 0.0 0.0 0.00 0.00 0.00 90 1012.6
20260510004125 18 200 0.0 0.0 0.00 0.00 0.00 90 1012.5
20260510003622 18 200 0.0 0.0 0.00 0.00 0.00 89 1012.7
20260510003118 19 200 0.0 0.0 0.00 0.00 0.00 88 1012.4
20260510002618 19 200 0.0 0.0 0.00 0.00 0.00 88 1012.5
20260510002115 19 200 0.0 0.0 0.00 0.00 0.00 88 1012.6
20260510001612 19 200 0.0 0.0 0.00 0.00 0.00 87 1012.5
20260510001111 20 200 0.0 0.0 0.00 0.00 0.00 87 1012.7
20260510000611 20 200 0.0 0.0 0.00 0.00 0.00 86 1012.8
20260510000108 20 200 0.0 0.0 0.00 0.00 0.00 86 1012.6
20260509235604 20 201 0.0 0.0 0.00 0.00 0.00 85 1012.5
20260509235101 20 201 0.0 0.0 0.00 0.00 0.00 84 1012.4
20260509234557 20 201 0.0 0.0 0.00 0.00 0.00 84 1012.5
20260509234055 20 202 0.0 0.0 0.00 0.00 0.00 84 1012.4
20260509233552 20 202 0.0 0.0 0.00 0.00 0.00 83 1012.1
20260509233050 20 202 0.0 0.0 0.00 0.00 0.00 83 1012.2
20260509232546 21 202 0.0 0.0 0.00 0.00 0.00 82 1012.0
20260509232043 21 202 0.0 0.0 0.00 0.00 0.00 81 1012.0
20260509231539 21 202 0.0 0.0 0.00 0.00 0.00 80 1012.2
20260509231037 21 200 0.0 0.0 0.00 0.00 0.00 80 1012.1
20260509230534 21 201 0.0 0.0 0.00 0.00 0.00 80 1011.9
20260509230031 21 188 0.0 0.0 0.00 0.00 0.00 79 1011.9
20260509225526 21 192 0.0 0.0 0.00 0.00 0.00 78 1011.9
20260509225022 21 188 0.0 0.0 0.00 0.00 0.00 78 1012.0
20260509224518 21 180 0.0 0.0 0.00 0.00 0.00 78 1011.6
20260509224014 21 177 1.6 1.6 0.00 0.00 0.00 77 1011.7
20260509223511 21 177 1.6 1.6 0.00 0.00 0.00 76 1011.7
20260509223010 21 196 0.0 1.6 0.00 0.00 0.00 77 1011.8
20260509222505 21 170 0.0 0.0 0.00 0.00 0.00 77 1011.7
20260509222001 21 179 0.0 1.6 0.00 0.00 0.00 77 1012.0
20260509221457 21 223 0.0 1.6 0.00 0.00 0.00 77 1012.1
20260509220953 21 191 0.0 1.6 0.00 0.00 0.00 77 1011.9
20260509220444 21 217 0.0 1.6 0.00 0.00 0.00 77 1012.0
20260509215940 21 196 0.0 0.0 0.00 0.00 0.00 78 1011.8
20260509215435 21 180 1.6 1.6 0.00 0.00 0.00 77 1012.2
20260509214933 21 218 1.6 1.6 0.00 0.00 0.00 77 1011.9
20260509214430 21 214 0.0 0.0 0.00 0.00 0.00 78 1012.0
20260509213927 21 179 0.0 0.0 0.00 0.00 0.00 79 1011.8
20260509213422 21 183 0.0 0.0 0.00 0.00 0.00 79 1011.8
20260509212921 21 183 0.0 0.0 0.00 0.00 0.00 78 1011.8
20260509212418 21 218 0.0 0.0 0.00 0.00 0.00 77 1011.9
20260509211914 21 218 0.0 0.0 0.00 0.00 0.00 74 1011.7
20260509211410 22 227 1.6 1.6 0.00 0.00 0.00 74 1011.7
20260509210906 22 221 0.0 0.0 0.00 0.00 0.00 76 1011.7
20260509210404 21 182 1.6 1.6 0.00 0.00 0.00 75 1011.6
20260509205904 21 190 0.0 1.6 0.00 0.00 0.00 77 1011.7
20260509205403 21 205 0.0 0.0 0.00 0.00 0.00 76 1011.6
20260509204900 21 209 0.0 0.0 0.00 0.00 0.00 78 1011.7
20260509204356 21 208 0.0 0.0 0.00 0.00 0.00 77 1011.8
20260509203853 21 213 0.0 0.0 0.00 0.00 0.00 77 1012.0
20260509203349 21 204 0.0 0.0 0.00 0.00 0.00 79 1011.6
20260509202846 21 204 0.0 0.0 0.00 0.00 0.00 78 1011.8
20260509202342 21 217 0.0 0.0 0.00 0.00 0.00 78 1011.9
20260509201837 21 218 1.6 1.6 0.00 0.00 0.00 77 1011.9
20260509201333 20 211 0.0 0.0 0.00 0.00 0.00 78 1011.9
20260509200830 20 211 0.0 0.0 0.00 0.00 0.00 78 1011.9
20260509200325 20 219 0.0 0.0 0.00 0.00 0.00 77 1011.9
20260509195822 20 198 0.0 0.0 0.00 0.00 0.00 78 1012.2
20260509195322 20 203 0.0 1.6 0.00 0.00 0.00 78 1012.1
20260509194822 20 195 0.0 0.0 0.00 0.00 0.00 79 1012.2
20260509194318 20 209 0.0 0.0 0.00 0.00 0.00 79 1012.3
20260509193815 20 223 0.0 0.0 0.00 0.00 0.00 79 1012.1
20260509193309 20 210 0.0 0.0 0.00 0.00 0.00 80 1012.3
20260509192806 20 211 0.0 0.0 0.00 0.00 0.00 79 1012.3
20260509192305 20 211 0.0 0.0 0.00 0.00 0.00 79 1012.7
20260509191757 20 211 0.0 0.0 0.00 0.00 0.00 79 1012.3
20260509191254 20 211 0.0 0.0 0.00 0.00 0.00 78 1012.6
20260509190749 20 219 0.0 0.0 0.00 0.00 0.00 76 1012.7
20260509190246 20 196 1.6 1.6 0.00 0.00 0.00 76 1012.7
20260509185744 20 176 0.0 0.0 0.00 0.00 0.00 76 1012.6
20260509185240 20 188 0.0 1.6 0.00 0.00 0.00 76 1012.4
20260509184737 20 187 1.6 1.6 0.00 0.00 0.00 75 1012.4
20260509184235 20 174 0.0 0.0 0.00 0.00 0.00 74 1012.6
20260509183731 21 176 0.0 0.0 0.00 0.00 0.00 75 1012.5
20260509183226 21 174 0.0 1.6 0.00 0.00 0.00 73 1012.5
20260509182721 22 186 0.0 1.6 0.00 0.00 0.00 71 1012.5
20260509182220 22 224 0.0 1.6 0.00 0.00 0.00 69 1012.5
20260509181717 21 186 0.0 0.0 0.00 0.00 0.00 71 1012.7
20260509181214 21 235 3.2 3.2 0.00 0.00 0.00 69 1012.9
20260509180711 21 227 1.6 1.6 0.00 0.00 0.00 69 1012.9
20260509180207 21 287 1.6 1.6 0.00 0.00 0.00 69 1013.0
20260509175704 21 194 0.0 0.0 0.00 0.00 0.00 68 1013.2
20260509175200 21 176 0.0 0.0 0.00 0.00 0.00 68 1013.1
20260509174656 21 192 0.0 0.0 0.00 0.00 0.00 68 1013.0
20260509174151 21 178 0.0 0.0 0.00 0.00 0.00 68 1013.1
20260509173648 21 183 1.6 1.6 0.00 0.00 0.00 66 1013.3
20260509173143 21 181 0.0 0.0 0.00 0.00 0.00 66 1013.3
20260509172640 21 207 0.0 0.0 0.00 0.00 0.00 66 1013.2
20260509172137 20 200 0.0 0.0 0.00 0.00 0.00 67 1013.4
20260509171632 20 194 0.0 0.0 0.00 0.00 0.00 68 1013.4
20260509171129 21 192 1.6 1.6 0.00 0.00 0.00 66 1013.6
20260509170625 21 209 0.0 1.6 0.00 0.00 0.00 63 1013.6
20260509170122 21 205 0.0 0.0 0.00 0.00 0.00 64 1013.5
20260509165620 21 184 0.0 1.6 0.00 0.00 0.00 66 1013.4
20260509165116 21 234 1.6 1.6 0.00 0.00 0.00 62 1013.7
20260509164611 21 201 0.0 1.6 0.00 0.00 0.00 63 1013.6
20260509164107 21 230 0.0 1.6 0.00 0.00 0.00 64 1013.7
20260509163606 21 192 0.0 0.0 0.00 0.00 0.00 67 1013.7
20260509163100 21 145 0.0 0.0 0.00 0.00 0.00 67 1013.9